Weather History for East Milton, MA

Change the Weather History Date:

Thursday, May 23, 2013

  Actual Average (KBOS) Record (KBOS)
Temperature  
Mean Temperature 64 °F 60 °F  
Max Temperature 73 °F 68 °F 93 °F (1964)
Min Temperature 54 °F 52 °F 40 °F (1967)
Degree Days  
Heating Degree Days 2 6  
Month to date heating degree days 205  
Since 1 July heating degree days 5586  
Cooling Degree Days 0 1  
Month to date cooling degree days 10  
Year to date cooling degree days 13  
Growing Degree Days 14 (Base 50)    
Moisture  
Dew Point 61 °F    
Average Humidity 88    
Maximum Humidity 96    
Minimum Humidity 68    
Precipitation  
Precipitation 0.06 in 0.13 in 1.09 in (1913)
Month to date precipitation 2.47  
Year to date precipitation 17.14  
Snow  
Snow 0.00 in 0.00 in 0.00 in (2002)
Month to date snowfall 0.1  
Since 1 July snowfall 43.9  
Snow Depth -    
Sea Level Pressure  
Sea Level Pressure 29.91 in    
Wind  
Wind Speed 12 mph (South)    
Max Wind Speed 26 mph    
Max Gust Speed 38 mph    
T = Trace of Precipitation, MM = Missing Value Source: NWS Daily Summary

Daily Weather History Graph

Daily Weather History Graph

Search for Another Location

Airport:

Trip Planner

Search our weather history database for the weather conditions in past years. The results will help you decide how hot, cold, wet, or windy it might be!

Date:

Astronomy

May. 23, 2013 Rise Set
Actual Time 5:16 AM EDT 8:06 PM EDT
Civil Twilight 4:43 AM EDT 8:39 PM EDT
Nautical Twilight 4:01 AM EDT 9:21 PM EDT
Astronomical Twilight 3:13 AM EDT 10:10 PM EDT
Moon 6:34 PM EDT (5/23) 4:00 AM EDT (5/23)
Length of Visible Light 15h 56m
Length of Day
14h 50m
Waxing Gibbous, 97% of the Moon is Illuminated
May 23
Waxing Gibbous
May 25
Full
May 31
Last Quarter
Jun 8
New
Jun 16
First Quarter

Hourly Weather History & Observations

Time (EDT) Temp. Dew Point Humidity Pressure Visibility Wind Dir Wind Speed Gust Speed Precip Events Conditions
12:54 AM 54.0 °F 52.0 °F 93% 29.94 in - ENE 3.5 mph - N/A   Unknown
1:54 AM 55.0 °F 54.0 °F 96% 29.93 in - SSE 4.6 mph - N/A   Unknown
2:54 AM 55.9 °F 54.0 °F 93% 29.92 in - Calm Calm - N/A   Unknown
3:54 AM 57.0 °F 55.9 °F 96% 29.90 in - SSE 11.5 mph - 0.01 in   Unknown
4:54 AM 60.1 °F 59.0 °F 96% 29.91 in - South 11.5 mph - N/A   Unknown
5:54 AM 62.1 °F 60.1 °F 93% 29.92 in - SSW 15.0 mph 20.7 mph N/A   Unknown
6:54 AM 63.0 °F 61.0 °F 93% 29.93 in - South 16.1 mph 24.2 mph N/A   Unknown
7:54 AM 64.0 °F 63.0 °F 96% 29.92 in - South 16.1 mph 23.0 mph N/A   Unknown
8:54 AM 64.9 °F 63.0 °F 93% 29.93 in - South 18.4 mph 21.9 mph N/A   Unknown
9:54 AM 66.0 °F 64.0 °F 93% 29.93 in - South 13.8 mph 19.6 mph N/A   Unknown
10:54 AM 68.0 °F 64.0 °F 87% 29.93 in - SSW 15.0 mph 19.6 mph N/A   Unknown
11:54 AM 71.1 °F 64.9 °F 81% 29.94 in - SSW 18.4 mph 25.3 mph N/A   Unknown
12:54 PM 68.0 °F 64.9 °F 90% 29.92 in - SW 18.4 mph 24.2 mph 0.01 in   Unknown
1:54 PM 72.0 °F 66.0 °F 81% 29.91 in - South 18.4 mph 26.5 mph N/A   Unknown
2:54 PM 73.0 °F 64.9 °F 76% 29.91 in - SSW 16.1 mph 28.8 mph N/A   Unknown
3:54 PM 73.9 °F 63.0 °F 68% 29.89 in - SSW 21.9 mph 35.7 mph N/A   Unknown
4:54 PM 72.0 °F 64.0 °F 76% 29.89 in - South 26.5 mph 38.0 mph N/A   Unknown
5:54 PM 69.1 °F 63.0 °F 81% 29.90 in - SSW 19.6 mph 29.9 mph N/A   Unknown
6:54 PM 68.0 °F 63.0 °F 84% 29.91 in - SSW 20.7 mph 28.8 mph N/A   Unknown
7:54 PM 66.9 °F 62.1 °F 84% 29.91 in - SSW 17.3 mph 32.2 mph N/A   Unknown
8:54 PM 66.0 °F 62.1 °F 87% 29.90 in - South 18.4 mph 27.6 mph N/A   Unknown
9:54 PM 64.0 °F 61.0 °F 90% 29.89 in - South 19.6 mph 31.1 mph N/A   Unknown
10:54 PM 64.0 °F 62.1 °F 93% 29.87 in - South 18.4 mph 32.2 mph 0.01 in   Unknown
11:54 PM 64.9 °F 63.0 °F 93% 29.85 in - South 20.7 mph 28.8 mph 0.03 in   Unknown